Location: Paderno d�Adda
(45.6667°N, 9.4333°E)
Time: 20:24:24
(UTC+00:00)

SPOT 3 Rocket - Pass Details

Date: 19 September 2020
Orbit: 780 x 794 km, 98.7° (Epoch: 27 October)

Event Time Altitude Azimuth Distance (km) Brightness Sun altitude
Exits shadow 19:32:56 51° 141° (SE) 979 3.6 -22.4°
Maximum altitude 19:34:12 74° 73° (ENE) 816 3.4 -22.6°
Drops below altitude 10° 19:39:21 10° 349° (N) 2,344 6.5 -23.4°
Sets 19:41:40 0° 348° (NNW) 3,278 7.3 -23.7°
